contact:dominique.lefevre@mio.osupytheas.fr, maurice.libes@osupytheas.fr, didier.mallarino@osupytheas.fr
Project:EMSO http://www.emso-fr.org/EMSO-France
Depth: 2436.0 m
Title:EMSO Ligure Ouest : Data MII capteur AQUADOPP
Date,Latitude,Longitude,X_East,Y_North,Z_Up,Amplitude_X,Amplitude_Y,Amplitude_Z,Batterie,SoundSpeed,Heading,Pitch,Roll,Pressure,TIS,Speed,Direction
, degrees North, degrees East, m.s-1, m.s-1,m.s-1, 1, 1, 1, Volt, m.s-1, degree, degree, degree, dbar, degree_C, m.s-1, degree
2021-05-13T00:04:03,42.805,6.029,-0.092,-0.037,-0.005,103.0,102.0,100.0,13.3,1505.2,326.7,-0.8,1.8,2470.496,13.28,0.099,248.1
2021-05-13T00:07:03,42.805,6.029,-0.072,-0.024,-0.025,104.0,102.0,101.0,13.3,1505.2,329.3,-0.7,1.8,2470.448,13.28,0.075,251.6
2021-05-13T00:10:03,42.805,6.029,-0.067,-0.017,0.0,103.0,104.0,101.0,13.4,1505.2,328.8,-0.7,1.9,2470.457,13.28,0.069,255.8
2021-05-13T00:13:03,42.805,6.029,-0.052,-0.01,-0.025,101.0,103.0,102.0,13.4,1505.2,326.3,-0.8,1.8,2470.469,13.28,0.052,259.1
2021-05-13T00:16:03,42.805,6.029,-0.072,-0.04,-0.002,103.0,102.0,101.0,13.4,1505.2,324.2,-0.8,1.8,2470.473,13.28,0.082,240.9
2021-05-13T00:19:03,42.805,6.029,-0.06,-0.047,-0.045,103.0,104.0,100.0,13.4,1505.2,328.8,-0.7,1.8,2470.478,13.28,0.076,231.9
2021-05-13T00:22:03,42.805,6.029,-0.08,-0.03,-0.055,102.0,102.0,101.0,13.4,1505.2,327.4,-0.8,1.8,2470.49,13.28,0.085,249.4
2021-05-13T00:25:03,42.805,6.029,-0.061,-0.044,-0.024,103.0,101.0,102.0,13.3,1505.2,327.1,-0.7,1.8,2470.457,13.28,0.075,234.2
2021-05-13T00:28:03,42.805,6.029,-0.065,-0.03,-0.004,103.0,102.0,102.0,13.4,1505.2,329.0,-0.7,1.8,2470.458,13.28,0.071,245.2
2021-05-13T00:31:03,42.805,6.029,-0.056,-0.04,-0.029,103.0,102.0,100.0,13.3,1505.2,324.3,-0.7,1.8,2470.465,13.28,0.068,234.5
2021-05-13T00:34:03,42.805,6.029,-0.066,-0.036,-0.039,102.0,102.0,101.0,13.4,1505.2,326.1,-0.8,1.8,2470.472,13.28,0.075,241.4
2021-05-13T00:37:03,42.805,6.029,-0.064,-0.038,0.008,102.0,103.0,100.0,13.4,1505.2,327.2,-0.7,1.8,2470.45,13.28,0.074,239.3
2021-05-13T00:40:03,42.805,6.029,-0.068,-0.026,-0.02,104.0,103.0,101.0,13.4,1505.2,327.3,-0.8,1.8,2470.447,13.28,0.072,249.1
2021-05-13T00:43:03,42.805,6.029,-0.07,-0.022,-0.009,103.0,102.0,102.0,13.4,1505.2,329.7,-0.8,1.8,2470.443,13.28,0.073,252.6
2021-05-13T00:46:03,42.805,6.029,-0.071,-0.025,-0.039,103.0,103.0,101.0,13.4,1505.2,325.0,-0.7,1.8,2470.481,13.28,0.075,250.6
2021-05-13T00:49:03,42.805,6.029,-0.079,-0.026,-0.024,102.0,102.0,100.0,13.3,1505.2,327.8,-0.7,1.8,2470.424,13.28,0.083,251.8
2021-05-13T00:52:03,42.805,6.029,-0.087,-0.051,-0.028,101.0,100.0,102.0,13.3,1505.2,328.0,-0.8,1.8,2470.445,13.28,0.1,239.6
2021-05-13T00:55:03,42.805,6.029,-0.072,-0.038,-0.053,102.0,102.0,101.0,13.4,1505.2,327.8,-0.8,1.8,2470.454,13.28,0.081,242.2
2021-05-13T00:58:03,42.805,6.029,-0.055,-0.013,-0.009,101.0,105.0,99.0,13.4,1505.2,325.9,-0.7,1.9,2470.461,13.28,0.056,256.7
2021-05-13T01:04:03,42.805,6.029,-0.069,-0.052,-0.01,103.0,102.0,101.0,13.4,1505.2,325.7,-0.8,1.8,2470.46,13.28,0.086,233.0
2021-05-13T01:07:03,42.805,6.029,-0.076,-0.041,-0.021,102.0,104.0,101.0,13.4,1505.2,327.5,-0.8,1.8,2470.46,13.28,0.086,241.7
2021-05-13T01:10:03,42.805,6.029,-0.079,-0.027,-0.027,102.0,103.0,100.0,13.3,1505.2,327.6,-0.7,1.8,2470.5,13.28,0.083,251.1
2021-05-13T01:13:03,42.805,6.029,-0.085,-0.028,-0.006,102.0,103.0,101.0,13.3,1505.2,324.1,-0.8,1.8,2470.471,13.28,0.089,251.8
2021-05-13T01:16:03,42.805,6.029,-0.053,-0.026,0.003,102.0,104.0,101.0,13.4,1505.2,328.0,-0.7,1.8,2470.446,13.28,0.059,243.9
2021-05-13T01:19:03,42.805,6.029,-0.067,-0.023,-0.033,102.0,102.0,100.0,13.4,1505.2,325.3,-0.8,1.8,2470.456,13.28,0.07,251.1
2021-05-13T01:22:03,42.805,6.029,-0.064,-0.036,-0.01,103.0,103.0,100.0,13.4,1505.2,325.3,-0.8,1.8,2470.424,13.28,0.073,240.6
2021-05-13T01:25:03,42.805,6.029,-0.068,-0.04,-0.009,102.0,104.0,100.0,13.3,1505.2,324.5,-0.8,1.9,2470.43,13.28,0.078,239.5
2021-05-13T01:28:03,42.805,6.029,-0.044,-0.059,0.009,103.0,108.0,103.0,13.4,1505.2,326.8,-0.7,1.8,2470.477,13.28,0.073,216.7
2021-05-13T01:31:03,42.805,6.029,-0.062,-0.036,-0.052,103.0,103.0,100.0,13.3,1505.2,324.7,-0.8,1.8,2470.462,13.28,0.071,239.9
2021-05-13T01:34:03,42.805,6.029,-0.076,-0.031,-0.025,104.0,103.0,99.0,13.3,1505.2,328.7,-0.7,1.8,2470.426,13.28,0.082,247.8
2021-05-13T01:37:03,42.805,6.029,-0.08,-0.041,-0.034,104.0,99.0,101.0,13.4,1505.2,327.6,-0.8,1.8,2470.426,13.28,0.089,242.9
2021-05-13T01:40:03,42.805,6.029,-0.057,-0.029,-0.027,102.0,104.0,101.0,13.3,1505.2,327.5,-0.8,1.9,2470.458,13.28,0.063,243.0
2021-05-13T01:43:03,42.805,6.029,-0.066,-0.005,-0.013,102.0,102.0,101.0,13.4,1505.2,327.0,-0.7,1.8,2470.442,13.28,0.066,265.7
2021-05-13T01:46:03,42.805,6.029,-0.084,-0.035,-0.034,102.0,104.0,100.0,13.3,1505.2,328.3,-0.8,1.8,2470.463,13.28,0.091,247.4
2021-05-13T01:49:03,42.805,6.029,-0.069,-0.026,-0.02,103.0,102.0,101.0,13.4,1505.2,325.9,-0.8,1.8,2470.433,13.28,0.073,249.4
2021-05-13T01:52:03,42.805,6.029,-0.064,-0.019,-0.038,103.0,104.0,100.0,13.4,1505.2,327.0,-0.8,1.9,2470.415,13.28,0.066,253.5
2021-05-13T01:55:03,42.805,6.029,-0.068,-0.023,-0.049,103.0,101.0,101.0,13.3,1505.2,324.1,-0.7,1.8,2470.46,13.28,0.071,251.3
2021-05-13T01:58:03,42.805,6.029,-0.077,-0.023,-0.047,103.0,102.0,101.0,13.4,1505.2,327.6,-0.7,1.8,2470.419,13.28,0.08,253.4
2021-05-13T02:04:03,42.805,6.029,-0.066,-0.03,-0.047,101.0,103.0,100.0,13.4,1505.2,327.5,-0.8,1.8,2470.434,13.28,0.072,245.6
2021-05-13T02:07:03,42.805,6.029,-0.089,-0.037,-0.037,103.0,103.0,101.0,13.3,1505.2,324.1,-0.8,1.8,2470.461,13.28,0.096,247.4
2021-05-13T02:10:03,42.805,6.029,-0.064,-0.035,-0.041,102.0,102.0,101.0,13.4,1505.2,325.9,-0.8,1.8,2470.411,13.28,0.072,241.3
2021-05-13T02:13:03,42.805,6.029,-0.036,-0.035,-0.002,103.0,102.0,101.0,13.4,1505.2,324.4,-0.8,1.8,2470.406,13.28,0.05,225.8
2021-05-13T02:16:03,42.805,6.029,-0.068,-0.055,-0.022,102.0,102.0,101.0,13.3,1505.2,325.6,-0.8,1.8,2470.436,13.28,0.087,231.0
2021-05-13T02:19:03,42.805,6.029,-0.077,-0.038,-0.043,103.0,103.0,100.0,13.4,1505.2,326.6,-0.8,1.8,2470.452,13.28,0.085,243.7
2021-05-13T02:22:03,42.805,6.029,-0.056,-0.032,-0.058,102.0,102.0,100.0,13.4,1505.2,327.2,-0.8,1.9,2470.45,13.28,0.064,240.3
2021-05-13T02:25:03,42.805,6.029,-0.084,-0.011,-0.007,103.0,103.0,101.0,13.4,1505.2,327.5,-0.8,1.8,2470.418,13.28,0.084,262.5
2021-05-13T02:28:03,42.805,6.029,-0.06,-0.05,-0.02,102.0,102.0,100.0,13.4,1505.2,325.4,-0.7,1.8,2470.423,13.28,0.078,230.2
2021-05-13T02:31:03,42.805,6.029,-0.092,-0.023,-0.008,102.0,102.0,100.0,13.4,1505.2,328.2,-0.8,1.8,2470.42,13.28,0.094,256.0
2021-05-13T02:34:03,42.805,6.029,-0.091,-0.028,-0.01,103.0,102.0,100.0,13.4,1505.2,325.8,-0.8,1.8,2470.413,13.28,0.095,252.9
2021-05-13T02:37:03,42.805,6.029,-0.075,-0.027,-0.011,104.0,101.0,100.0,13.4,1505.2,327.0,-0.7,1.8,2470.411,13.28,0.079,250.2
2021-05-13T02:40:03,42.805,6.029,-0.085,-0.025,-0.026,104.0,102.0,101.0,13.4,1505.2,325.0,-0.8,1.8,2470.403,13.28,0.088,253.6
2021-05-13T02:43:03,42.805,6.029,-0.098,-0.016,0.0,102.0,102.0,101.0,13.4,1505.2,326.3,-0.7,1.8,2470.419,13.28,0.099,260.7
2021-05-13T02:46:03,42.805,6.029,-0.054,-0.026,-0.018,102.0,103.0,100.0,13.3,1505.2,328.7,-0.7,1.8,2470.39,13.28,0.059,244.3
2021-05-13T02:49:03,42.805,6.029,-0.055,-0.045,-0.023,103.0,102.0,102.0,13.4,1505.2,327.9,-0.8,1.9,2470.368,13.28,0.071,230.7
2021-05-13T02:52:03,42.805,6.029,-0.072,-0.037,-0.024,105.0,101.0,100.0,13.4,1505.2,328.8,-0.8,1.8,2470.399,13.28,0.08,242.8
2021-05-13T02:55:03,42.805,6.029,-0.056,-0.057,-0.029,103.0,102.0,100.0,13.4,1505.2,324.4,-0.7,1.8,2470.429,13.28,0.079,224.5
2021-05-13T02:58:03,42.805,6.029,-0.072,-0.024,-0.038,103.0,104.0,101.0,13.3,1505.2,327.7,-0.8,1.9,2470.432,13.28,0.075,251.6
2021-05-13T03:04:03,42.805,6.029,-0.041,-0.039,-0.021,103.0,102.0,101.0,13.3,1505.2,327.0,-0.7,1.8,2470.404,13.28,0.056,226.4
2021-05-13T03:07:03,42.805,6.029,-0.06,-0.031,-0.003,104.0,102.0,101.0,13.4,1505.2,325.0,-0.8,1.8,2470.384,13.28,0.067,242.7
2021-05-13T03:10:03,42.805,6.029,-0.046,-0.042,-0.033,104.0,103.0,100.0,13.4,1505.2,328.8,-0.8,1.8,2470.475,13.28,0.062,227.6
2021-05-13T03:13:03,42.805,6.029,-0.065,-0.015,-0.025,104.0,103.0,101.0,13.3,1505.2,328.9,-0.8,1.9,2470.425,13.28,0.066,257.0
2021-05-13T03:16:03,42.805,6.029,-0.072,-0.032,-0.011,103.0,103.0,102.0,13.3,1505.2,326.0,-0.8,1.9,2470.417,13.28,0.078,246.0
2021-05-13T03:19:03,42.805,6.029,-0.07,-0.035,-0.043,104.0,102.0,101.0,13.4,1505.2,326.8,-0.8,1.8,2470.418,13.28,0.078,243.4
2021-05-13T03:22:03,42.805,6.029,-0.082,-0.054,-0.044,104.0,102.0,101.0,13.4,1505.2,324.5,-0.7,1.8,2470.453,13.28,0.098,236.6
2021-05-13T03:25:03,42.805,6.029,-0.066,-0.023,-0.009,103.0,104.0,100.0,13.4,1505.2,328.4,-0.8,1.9,2470.452,13.28,0.069,250.8
2021-05-13T03:28:03,42.805,6.029,-0.067,-0.029,-0.039,104.0,101.0,100.0,13.3,1505.2,326.8,-0.8,1.8,2470.397,13.28,0.073,246.6
2021-05-13T03:31:03,42.805,6.029,-0.073,-0.031,-0.035,103.0,102.0,101.0,13.4,1505.2,326.0,-0.8,1.8,2470.404,13.28,0.079,247.0
2021-05-13T03:34:03,42.805,6.029,-0.056,-0.025,-0.021,102.0,103.0,101.0,13.4,1505.2,326.2,-0.7,1.8,2470.411,13.28,0.061,245.9
2021-05-13T03:37:03,42.805,6.029,-0.056,-0.04,-0.012,104.0,103.0,101.0,13.4,1505.2,327.2,-0.8,1.8,2470.409,13.28,0.068,234.5
2021-05-13T03:40:03,42.805,6.029,-0.039,-0.029,-0.048,104.0,103.0,100.0,13.4,1505.2,325.9,-0.8,1.8,2470.443,13.28,0.048,233.4
2021-05-13T03:43:03,42.805,6.029,-0.05,-0.021,-0.012,103.0,103.0,101.0,13.3,1505.2,324.6,-0.7,1.8,2470.41,13.28,0.054,247.2
2021-05-13T03:46:03,42.805,6.029,-0.076,-0.044,-0.01,102.0,103.0,101.0,13.4,1505.2,327.5,-0.7,1.8,2470.384,13.28,0.087,239.9
2021-05-13T03:49:03,42.805,6.029,-0.067,-0.029,-0.069,103.0,103.0,101.0,13.3,1505.2,325.6,-0.8,1.8,2470.388,13.28,0.073,246.6
2021-05-13T03:52:03,42.805,6.029,-0.082,-0.032,-0.049,103.0,102.0,101.0,13.4,1505.2,326.9,-0.8,1.8,2470.449,13.28,0.088,248.7
2021-05-13T03:55:03,42.805,6.029,-0.073,-0.02,-0.029,103.0,103.0,101.0,13.3,1505.2,324.1,-0.7,1.8,2470.414,13.28,0.075,254.7
2021-05-13T03:58:03,42.805,6.029,-0.058,-0.027,-0.014,103.0,103.0,102.0,13.3,1505.2,325.2,-0.8,1.8,2470.41,13.28,0.063,245.0
2021-05-13T04:04:03,42.805,6.029,-0.058,-0.05,-0.035,103.0,103.0,102.0,13.4,1505.2,328.2,-0.7,1.8,2470.441,13.28,0.076,229.2
2021-05-13T04:07:03,42.805,6.029,-0.075,-0.031,-0.021,101.0,104.0,101.0,13.4,1505.2,328.8,-0.8,1.8,2470.453,13.28,0.081,247.5
2021-05-13T04:10:03,42.805,6.029,-0.06,-0.014,-0.003,104.0,101.0,101.0,13.4,1505.2,325.3,-0.7,1.8,2470.417,13.28,0.061,256.9
2021-05-13T04:13:03,42.805,6.029,-0.055,-0.035,-0.016,104.0,102.0,101.0,13.3,1505.2,328.2,-0.7,1.8,2470.409,13.28,0.065,237.5
2021-05-13T04:16:03,42.805,6.029,-0.061,-0.026,-0.031,103.0,102.0,102.0,13.3,1505.2,324.0,-0.8,1.8,2470.411,13.28,0.066,246.9
2021-05-13T04:19:03,42.805,6.029,-0.069,-0.04,-0.025,102.0,104.0,101.0,13.3,1505.2,326.7,-0.8,1.8,2470.404,13.28,0.079,239.9
2021-05-13T04:22:03,42.805,6.029,-0.058,-0.031,-0.012,103.0,103.0,101.0,13.4,1505.2,325.1,-0.8,1.8,2470.458,13.28,0.065,241.9
2021-05-13T04:25:03,42.805,6.029,-0.07,-0.027,-0.01,102.0,103.0,102.0,13.4,1505.2,327.4,-0.7,1.8,2470.414,13.28,0.075,248.9
2021-05-13T04:28:03,42.805,6.029,-0.076,-0.047,-0.022,102.0,103.0,102.0,13.4,1505.2,325.1,-0.8,1.8,2470.391,13.28,0.089,238.3
2021-05-13T04:31:03,42.805,6.029,-0.049,-0.032,-0.038,104.0,101.0,101.0,13.4,1505.2,328.4,-0.8,1.8,2470.397,13.28,0.058,236.8
2021-05-13T04:34:03,42.805,6.029,-0.072,-0.014,0.01,103.0,104.0,101.0,13.4,1505.2,326.8,-0.8,1.8,2470.39,13.28,0.073,259.0
2021-05-13T04:37:03,42.805,6.029,-0.066,-0.027,-0.018,103.0,102.0,101.0,13.4,1505.2,325.2,-0.8,1.9,2470.406,13.28,0.071,247.8
2021-05-13T04:40:03,42.805,6.029,-0.071,-0.029,-0.031,102.0,103.0,102.0,13.4,1505.2,328.0,-0.8,1.8,2470.407,13.28,0.076,247.8
2021-05-13T04:43:03,42.805,6.029,-0.091,-0.005,-0.038,103.0,102.0,101.0,13.4,1505.2,325.5,-0.8,1.8,2470.431,13.28,0.091,266.9
2021-05-13T04:46:03,42.805,6.029,-0.084,-0.007,0.002,103.0,101.0,101.0,13.4,1505.2,328.4,-0.7,1.8,2470.409,13.28,0.084,265.2
2021-05-13T04:49:03,42.805,6.029,-0.057,-0.04,-0.004,103.0,102.0,101.0,13.4,1505.2,328.2,-0.8,1.8,2470.454,13.28,0.069,234.9
2021-05-13T04:52:03,42.805,6.029,-0.081,-0.03,-0.043,103.0,102.0,101.0,13.4,1505.2,327.2,-0.7,1.8,2470.406,13.28,0.086,249.7
2021-05-13T04:55:03,42.805,6.029,-0.098,-0.017,-0.051,102.0,102.0,100.0,13.4,1505.2,324.6,-0.7,1.8,2470.406,13.28,0.099,260.2
2021-05-13T04:58:03,42.805,6.029,-0.071,-0.038,-0.046,103.0,102.0,100.0,13.4,1505.2,329.4,-0.8,1.8,2470.423,13.28,0.08,241.8
2021-05-13T05:04:03,42.805,6.029,-0.063,-0.032,-0.016,102.0,102.0,105.0,13.4,1505.2,326.0,-0.8,1.8,2470.392,13.28,0.07,243.1
2021-05-13T05:07:03,42.805,6.029,-0.079,-0.024,-0.027,102.0,104.0,99.0,13.4,1505.2,327.2,-0.8,1.8,2470.473,13.28,0.082,253.1
2021-05-13T05:10:03,42.805,6.029,-0.072,-0.024,0.002,102.0,102.0,101.0,13.4,1505.2,325.4,-0.8,1.8,2470.402,13.28,0.075,251.6
2021-05-13T05:13:03,42.805,6.029,-0.071,-0.024,-0.014,102.0,103.0,101.0,13.4,1505.2,327.9,-0.7,1.8,2470.401,13.28,0.074,251.3
2021-05-13T05:16:03,42.805,6.029,-0.08,-0.024,-0.033,103.0,104.0,101.0,13.4,1505.2,324.2,-0.8,1.9,2470.45,13.28,0.083,253.3
2021-05-13T05:19:03,42.805,6.029,-0.064,-0.012,-0.045,104.0,102.0,99.0,13.4,1505.2,326.6,-0.7,1.8,2470.415,13.28,0.065,259.4
2021-05-13T05:22:03,42.805,6.029,-0.081,-0.025,-0.037,102.0,102.0,100.0,13.3,1505.2,329.1,-0.8,1.8,2470.415,13.28,0.084,252.9
2021-05-13T05:25:03,42.805,6.029,-0.07,-0.002,-0.007,103.0,103.0,101.0,13.4,1505.2,324.8,-0.7,1.8,2470.455,13.28,0.07,268.4
2021-05-13T05:28:03,42.805,6.029,-0.065,-0.019,-0.017,103.0,102.0,100.0,13.4,1505.2,324.5,-0.8,1.8,2470.395,13.28,0.067,253.7
2021-05-13T05:31:03,42.805,6.029,-0.069,-0.038,-0.026,103.0,102.0,101.0,13.4,1505.2,328.7,-0.7,1.8,2470.4,13.28,0.078,241.2
2021-05-13T05:34:03,42.805,6.029,-0.081,-0.01,-0.035,104.0,102.0,100.0,13.3,1505.2,325.6,-0.8,1.8,2470.449,13.28,0.081,263.0
2021-05-13T05:37:03,42.805,6.029,-0.066,-0.025,-0.026,103.0,103.0,101.0,13.3,1505.2,324.5,-0.8,1.8,2470.481,13.28,0.07,249.3
2021-05-13T05:40:03,42.805,6.029,-0.059,-0.007,-0.039,102.0,101.0,101.0,13.4,1505.2,329.1,-0.8,1.8,2470.467,13.28,0.059,263.2
2021-05-13T05:43:03,42.805,6.029,-0.063,-0.034,-0.025,103.0,103.0,100.0,13.3,1505.2,326.2,-0.8,1.8,2470.404,13.28,0.071,241.6
2021-05-13T05:46:03,42.805,6.029,-0.075,-0.02,-0.027,102.0,103.0,102.0,13.4,1505.2,327.9,-0.8,1.8,2470.466,13.28,0.077,255.1
2021-05-13T05:49:03,42.805,6.029,-0.071,-0.026,-0.012,102.0,102.0,102.0,13.4,1505.2,327.3,-0.8,1.8,2470.404,13.28,0.075,249.9
2021-05-13T05:52:03,42.805,6.029,-0.071,-0.046,-0.022,103.0,103.0,101.0,13.4,1505.2,328.4,-0.8,1.8,2470.489,13.28,0.084,237.1
2021-05-13T05:55:03,42.805,6.029,-0.072,-0.022,-0.005,103.0,104.0,100.0,13.3,1505.2,327.6,-0.7,1.8,2470.486,13.28,0.075,253.0
2021-05-13T05:58:03,42.805,6.029,-0.045,-0.023,-0.006,102.0,102.0,101.0,13.3,1505.2,329.0,-0.8,1.8,2470.482,13.28,0.05,242.9
2021-05-13T06:04:03,42.805,6.029,-0.064,-0.035,-0.03,103.0,103.0,100.0,13.3,1505.2,328.6,-0.8,1.8,2470.462,13.28,0.072,241.3
2021-05-13T06:07:03,42.805,6.029,-0.057,-0.022,-0.026,103.0,102.0,102.0,13.4,1505.2,327.2,-0.7,1.8,2470.435,13.28,0.061,248.9
2021-05-13T06:10:03,42.805,6.029,-0.069,-0.006,-0.024,105.0,102.0,100.0,13.4,1505.2,326.1,-0.8,1.8,2470.475,13.28,0.069,265.0
2021-05-13T06:13:03,42.805,6.029,-0.064,-0.02,-0.063,103.0,104.0,102.0,13.3,1505.2,327.2,-0.7,1.8,2470.469,13.28,0.067,252.6
2021-05-13T06:16:03,42.805,6.029,-0.061,-0.036,0.007,104.0,105.0,102.0,13.4,1505.2,326.9,-0.7,1.8,2470.47,13.28,0.07,239.5
2021-05-13T06:19:03,42.805,6.029,-0.07,-0.036,-0.011,103.0,103.0,101.0,13.3,1505.2,324.4,-0.8,1.8,2470.456,13.28,0.078,242.8
2021-05-13T06:22:03,42.805,6.029,-0.092,-0.02,-0.009,104.0,101.0,102.0,13.4,1505.2,329.5,-0.8,1.8,2470.508,13.28,0.094,257.7
2021-05-13T06:25:03,42.805,6.029,-0.08,-0.021,-0.012,103.0,102.0,102.0,13.3,1505.2,326.4,-0.7,1.8,2470.461,13.28,0.082,255.3
2021-05-13T06:28:03,42.805,6.029,-0.078,-0.017,-0.005,103.0,102.0,101.0,13.4,1505.2,325.9,-0.8,1.8,2470.484,13.28,0.079,257.7
2021-05-13T06:31:03,42.805,6.029,-0.081,-0.042,-0.027,103.0,103.0,100.0,13.3,1505.2,325.4,-0.7,1.9,2470.453,13.28,0.091,242.6
2021-05-13T06:34:03,42.805,6.029,-0.058,-0.023,-0.03,103.0,103.0,100.0,13.3,1505.2,329.5,-0.8,1.8,2470.466,13.28,0.062,248.4
2021-05-13T06:37:03,42.805,6.029,-0.06,-0.021,-0.026,103.0,102.0,101.0,13.4,1505.2,327.2,-0.8,1.8,2470.468,13.28,0.063,250.7
2021-05-13T06:40:03,42.805,6.029,-0.083,-0.014,-0.018,102.0,103.0,101.0,13.3,1505.2,323.8,-0.8,1.8,2470.505,13.28,0.084,260.4
2021-05-13T06:43:03,42.805,6.029,-0.081,-0.026,-0.035,104.0,103.0,101.0,13.4,1505.2,329.1,-0.8,1.8,2470.537,13.28,0.085,252.2
2021-05-13T06:46:03,42.805,6.029,-0.049,-0.039,-0.017,103.0,102.0,101.0,13.3,1505.2,328.1,-0.8,1.8,2470.509,13.28,0.062,231.5
2021-05-13T06:49:03,42.805,6.029,-0.079,-0.023,-0.047,103.0,102.0,101.0,13.4,1505.2,328.6,-0.8,1.8,2470.503,13.28,0.082,253.8
2021-05-13T06:52:03,42.805,6.029,-0.062,-0.032,-0.047,104.0,102.0,101.0,13.4,1505.2,327.7,-0.8,1.8,2470.536,13.28,0.069,242.7
2021-05-13T06:55:03,42.805,6.029,-0.06,-0.023,-0.001,103.0,102.0,101.0,13.4,1505.2,328.5,-0.8,1.8,2470.522,13.28,0.064,249.0
2021-05-13T06:58:03,42.805,6.029,-0.078,0.0,-0.023,104.0,104.0,100.0,13.4,1505.2,325.2,-0.8,1.8,2470.492,13.28,0.077,270.0
2021-05-13T07:04:03,42.805,6.029,-0.084,-0.026,-0.018,103.0,103.0,101.0,13.4,1505.2,328.1,-0.8,1.8,2470.524,13.28,0.087,252.8
2021-05-13T07:07:03,42.805,6.029,-0.051,-0.014,-0.023,104.0,104.0,101.0,13.4,1505.2,326.6,-0.8,1.8,2470.54,13.28,0.052,254.7
2021-05-13T07:10:03,42.805,6.029,-0.078,-0.019,-0.034,103.0,102.0,101.0,13.4,1505.2,325.7,-0.7,1.8,2470.507,13.28,0.08,256.3
2021-05-13T07:13:03,42.805,6.029,-0.079,-0.012,-0.029,103.0,102.0,101.0,13.4,1505.2,325.7,-0.7,1.8,2470.492,13.28,0.079,261.4
2021-05-13T07:16:03,42.805,6.029,-0.07,-0.022,-0.018,103.0,102.0,101.0,13.4,1505.2,326.3,-0.8,1.8,2470.517,13.28,0.073,252.6
2021-05-13T07:19:03,42.805,6.029,-0.075,-0.014,-0.004,103.0,102.0,102.0,13.4,1505.2,324.1,-0.7,1.8,2470.526,13.28,0.076,259.4
2021-05-13T07:22:03,42.805,6.029,-0.058,-0.04,-0.037,104.0,103.0,102.0,13.4,1505.2,329.2,-0.7,1.8,2470.523,13.28,0.07,235.4
2021-05-13T07:25:03,42.805,6.029,-0.038,-0.044,0.014,103.0,103.0,102.0,13.4,1505.2,328.0,-0.7,1.8,2470.524,13.28,0.058,220.8
2021-05-13T07:28:03,42.805,6.029,-0.077,-0.027,-0.021,104.0,103.0,102.0,13.4,1505.2,324.9,-0.7,1.8,2470.494,13.28,0.081,250.7
2021-05-13T07:31:03,42.805,6.029,-0.052,-0.027,-0.012,102.0,103.0,101.0,13.4,1505.2,327.1,-0.8,1.8,2470.505,13.28,0.058,242.6
2021-05-13T07:34:03,42.805,6.029,-0.046,-0.017,-0.055,104.0,103.0,101.0,13.4,1505.2,328.2,-0.8,1.8,2470.487,13.28,0.049,249.7
2021-05-13T07:37:03,42.805,6.029,-0.07,-0.03,-0.04,104.0,104.0,101.0,13.4,1505.2,324.3,-0.8,1.8,2470.541,13.28,0.076,246.8
2021-05-13T07:40:03,42.805,6.029,-0.064,-0.017,-0.012,103.0,104.0,102.0,13.4,1505.2,328.5,-0.8,1.8,2470.518,13.28,0.066,255.1
2021-05-13T07:43:03,42.805,6.029,-0.055,-0.02,0.001,104.0,103.0,101.0,13.3,1505.2,325.5,-0.8,1.8,2470.511,13.28,0.058,250.0
2021-05-13T07:46:03,42.805,6.029,-0.052,-0.045,-0.003,103.0,103.0,101.0,13.3,1505.2,328.8,-0.7,1.8,2470.502,13.28,0.068,229.1
2021-05-13T07:49:03,42.805,6.029,-0.075,-0.031,-0.012,103.0,103.0,102.0,13.4,1505.2,328.2,-0.8,1.8,2470.555,13.28,0.081,247.5
2021-05-13T07:52:03,42.805,6.029,-0.065,-0.029,0.008,103.0,103.0,101.0,13.4,1505.2,328.8,-0.7,1.8,2470.501,13.28,0.071,246.0
2021-05-13T07:55:03,42.805,6.029,-0.053,-0.028,-0.025,104.0,104.0,101.0,13.3,1505.2,324.2,-0.7,1.8,2470.475,13.28,0.059,242.1
2021-05-13T07:58:03,42.805,6.029,-0.049,-0.019,-0.019,104.0,103.0,101.0,13.4,1505.2,327.2,-0.8,1.8,2470.462,13.28,0.052,248.8
2021-05-13T08:04:03,42.805,6.029,-0.063,-0.016,-0.026,104.0,103.0,101.0,13.4,1505.2,326.6,-0.8,1.8,2470.505,13.28,0.064,255.8
2021-05-13T08:07:03,42.805,6.029,-0.068,-0.01,0.007,103.0,102.0,102.0,13.4,1505.2,327.6,-0.8,1.8,2470.5,13.28,0.068,261.6
2021-05-13T08:10:03,42.805,6.029,-0.041,-0.035,-0.02,104.0,104.0,101.0,13.4,1505.2,327.3,-0.8,1.8,2470.515,13.28,0.053,229.5
2021-05-13T08:13:03,42.805,6.029,-0.044,-0.027,-0.028,103.0,104.0,100.0,13.4,1505.2,327.6,-0.8,1.8,2470.499,13.28,0.051,238.5
2021-05-13T08:16:03,42.805,6.029,-0.056,-0.029,0.016,105.0,103.0,101.0,13.4,1505.2,328.1,-0.7,1.8,2470.503,13.28,0.063,242.6
2021-05-13T08:19:03,42.805,6.029,-0.082,-0.026,-0.006,104.0,102.0,101.0,13.4,1505.2,328.7,-0.8,1.8,2470.513,13.28,0.086,252.4
2021-05-13T08:22:03,42.805,6.029,-0.074,-0.044,-0.048,105.0,103.0,102.0,13.3,1505.2,328.0,-0.7,1.8,2470.494,13.28,0.086,239.3
2021-05-13T08:25:03,42.805,6.029,-0.066,-0.019,0.005,104.0,103.0,101.0,13.4,1505.2,328.2,-0.8,1.8,2470.515,13.28,0.068,253.9
2021-05-13T08:28:03,42.805,6.029,-0.068,-0.01,-0.015,103.0,102.0,102.0,13.4,1505.2,326.9,-0.8,1.8,2470.525,13.28,0.068,261.6
2021-05-13T08:31:03,42.805,6.029,-0.061,-0.028,-0.018,105.0,104.0,102.0,13.3,1505.2,328.3,-0.7,1.8,2470.486,13.28,0.067,245.3
2021-05-13T08:34:03,42.805,6.029,-0.07,-0.017,-0.037,104.0,103.0,101.0,13.4,1505.2,327.6,-0.7,1.8,2470.511,13.28,0.072,256.3
2021-05-13T08:37:03,42.805,6.029,-0.071,-0.022,-0.012,104.0,103.0,102.0,13.4,1505.2,325.3,-0.7,1.8,2470.479,13.28,0.074,252.8
2021-05-13T08:40:03,42.805,6.029,-0.051,-0.018,-0.042,104.0,104.0,101.0,13.4,1505.2,327.3,-0.7,1.8,2470.505,13.28,0.054,250.6
2021-05-13T08:43:03,42.805,6.029,-0.075,-0.015,-0.015,104.0,104.0,101.0,13.3,1505.2,326.7,-0.7,1.8,2470.515,13.28,0.076,258.7
2021-05-13T08:46:03,42.805,6.029,-0.053,-0.021,-0.03,105.0,104.0,102.0,13.4,1505.2,327.4,-0.8,1.8,2470.465,13.28,0.057,248.4
2021-05-13T08:49:03,42.805,6.029,-0.059,-0.03,-0.02,104.0,102.0,101.0,13.3,1505.2,328.1,-0.8,1.8,2470.47,13.28,0.066,243.1
2021-05-13T08:52:03,42.805,6.029,-0.077,-0.034,-0.043,104.0,103.0,101.0,13.4,1505.2,325.7,-0.8,1.8,2470.458,13.28,0.084,246.2
2021-05-13T08:55:03,42.805,6.029,-0.065,-0.021,0.002,104.0,103.0,102.0,13.4,1505.2,328.7,-0.7,1.8,2470.484,13.28,0.068,252.1
2021-05-13T08:58:03,42.805,6.029,-0.056,-0.039,0.0,105.0,103.0,101.0,13.3,1505.2,325.5,-0.7,1.8,2470.474,13.28,0.068,235.1
2021-05-13T09:04:03,42.805,6.029,-0.049,-0.037,0.0,104.0,102.0,102.0,13.4,1505.2,327.6,-0.7,1.8,2470.512,13.28,0.061,232.9
2021-05-13T09:07:03,42.805,6.029,-0.057,-0.027,0.011,103.0,103.0,101.0,13.4,1505.2,327.3,-0.7,1.8,2470.467,13.28,0.063,244.7
2021-05-13T09:10:03,42.805,6.029,-0.066,-0.026,-0.025,104.0,104.0,101.0,13.4,1505.2,327.6,-0.8,1.8,2470.53,13.28,0.07,248.5
2021-05-13T09:13:03,42.805,6.029,-0.071,-0.029,-0.021,103.0,104.0,102.0,13.4,1505.2,328.3,-0.7,1.8,2470.528,13.28,0.076,247.8
2021-05-13T09:16:03,42.805,6.029,-0.046,-0.024,0.001,105.0,104.0,102.0,13.4,1505.2,324.7,-0.7,1.9,2470.462,13.28,0.051,242.4
2021-05-13T09:19:03,42.805,6.029,-0.065,-0.032,-0.032,105.0,105.0,100.0,13.4,1505.2,327.6,-0.8,1.8,2470.499,13.28,0.072,243.8
2021-05-13T09:22:03,42.805,6.029,-0.055,-0.012,-0.022,104.0,105.0,102.0,13.3,1505.2,326.5,-0.8,1.9,2470.504,13.28,0.056,257.7
2021-05-13T09:25:03,42.805,6.029,-0.07,-0.021,-0.01,105.0,104.0,102.0,13.4,1505.2,327.0,-0.7,1.8,2470.495,13.28,0.073,253.3
2021-05-13T09:28:03,42.805,6.029,-0.057,-0.032,-0.006,105.0,103.0,103.0,13.4,1505.2,328.1,-0.8,1.8,2470.457,13.28,0.065,240.7
2021-05-13T09:31:03,42.805,6.029,-0.04,-0.028,-0.022,104.0,105.0,102.0,13.4,1505.2,329.2,-0.8,1.8,2470.497,13.28,0.048,235.0
2021-05-13T09:34:03,42.805,6.029,-0.067,-0.023,0.0,105.0,104.0,101.0,13.3,1505.2,325.6,-0.8,1.8,2470.452,13.28,0.07,251.1
2021-05-13T09:37:03,42.805,6.029,-0.074,-0.002,-0.032,104.0,104.0,100.0,13.3,1505.2,328.2,-0.8,1.8,2470.506,13.28,0.074,268.5
2021-05-13T09:40:03,42.805,6.029,-0.081,-0.048,-0.016,104.0,104.0,102.0,13.3,1505.2,326.2,-0.8,1.8,2470.458,13.28,0.094,239.3
2021-05-13T09:43:03,42.805,6.029,-0.046,-0.031,-0.002,104.0,104.0,102.0,13.4,1505.2,329.0,-0.8,1.8,2470.442,13.28,0.055,236.0
2021-05-13T09:46:03,42.805,6.029,-0.034,-0.02,-0.003,104.0,103.0,102.0,13.4,1505.2,329.1,-0.7,1.8,2470.434,13.28,0.039,239.5
2021-05-13T09:49:03,42.805,6.029,-0.035,-0.038,-0.038,105.0,104.0,103.0,13.4,1505.2,329.1,-0.7,1.8,2470.482,13.28,0.051,222.6